Zurück zum Katalog

STARLINK-31158

AktivKommunikationVLEO
NORAD 58854·PAYLOAD·🇺🇸 United States

Gestartet Jan 29, 2024 von Cape Canaveral Space Force Station

Loading…

Nächste Überflüge (nächste 24 Stunden)

TLE

AktuellSource: CelesTrak SupGP

Epoche: Sep 15, 2026, 03:05 UTC

1 58854C 24019B   26258.12895833 -.00023156  00000+0 -83884-3 0  2588
2 58854  43.0004 258.9323 0001183 264.8252 188.3511 15.27584925    13

Verfolge STARLINK-31158 in Echtzeit mit AllMySat

Download on the App Store